Theta_e
321 325 329 327 325 323 327 326 322 324 323 321 322 321 324 331 346 349 343 345 345 338 339 343 344 343 343 343 343 342 342 341 341 339 337 337 335 332 330 338 336 340 340 336 334 332 331 331 330
321 328 328 321 327 328 326 323 322 323 322 322 322 322 331 346 341 342 344 347 344 339 341 343 344 343 341 342 342 342 343 342 339 336 337 334 334 330 342 342 340 341 338 334 332 331 332 332 327
322 325 324 324 326 329 327 323 320 321 321 323 323 322 334 341 341 343 345 347 346 342 340 338 339 339 339 342 340 342 342 338 336 337 334 332 332 336 340 340 340 339 335 331 327 331 332 328 325
328 324 320 327 329 326 326 324 321 322 322 322 322 337 338 341 343 345 344 346 344 344 343 343 343 339 340 341 340 342 341 339 336 336 331 331 332 336 339 338 338 336 333 329 324 326 327 326 327
325 323 327 326 327 326 323 322 321 322 322 322 322 335 343 342 343 343 343 344 343 344 343 342 342 340 342 343 341 342 340 338 336 335 331 333 333 335 335 335 334 333 331 325 321 323 325 325 326
327 326 329 330 327 325 324 320 320 321 321 321 324 339 343 342 343 343 344 343 343 344 342 341 340 342 341 340 340 340 339 338 336 335 334 334 334 334 331 331 331 331 329 327 324 323 324 324 325
326 329 329 328 329 328 326 320 320 321 321 322 321 340 340 342 342 342 343 344 344 343 342 339 340 339 340 340 340 339 339 339 336 334 332 332 332 331 330 328 329 329 330 332 327 325 323 322 322
327 327 328 328 329 330 327 322 319 320 321 320 320 337 346 343 344 343 342 343 343 342 341 338 340 340 339 339 339 339 340 339 337 334 334 330 322 325 327 326 325 327 332 332 328 324 321 320 321
326 331 331 329 329 329 326 327 321 318 319 318 326 335 342 343 344 344 343 341 342 341 341 339 339 338 339 338 338 338 338 339 337 336 334 333 323 322 323 326 331 331 332 332 329 323 318 318 318
328 331 329 327 326 328 327 327 321 321 320 319 332 341 342 341 341 342 343 343 341 341 340 339 339 338 337 337 338 338 337 336 339 336 335 333 326 321 322 328 330 332 331 331 331 324 317 317 317
326 328 326 325 324 326 328 326 323 319 321 319 326 340 339 340 340 339 341 342 342 341 340 340 340 338 337 336 335 327 328 331 337 337 335 333 329 329 328 327 330 331 331 330 332 327 320 317 317
323 324 325 326 327 328 328 324 322 320 319 319 316 331 335 336 338 339 339 340 342 342 342 339 340 337 336 336 337 334 333 334 331 336 335 335 332 331 331 330 329 327 328 329 331 330 324 319 317
323 322 323 322 322 324 326 326 322 319 318 318 318 319 325 331 336 339 340 341 340 341 342 341 339 336 336 336 337 336 334 335 334 334 336 336 333 333 331 331 331 330 323 328 330 330 324 320 318
320 321 321 319 320 319 320 322 319 318 317 318 318 319 319 319 322 333 339 340 341 341 340 341 341 339 337 336 336 336 334 334 333 335 335 336 336 332 332 333 332 331 330 330 331 332 327 323 319
318 322 320 321 320 320 319 321 322 317 318 319 318 317 317 317 318 320 336 338 340 341 340 341 339 340 339 339 337 336 337 335 334 334 334 334 334 332 333 333 332 332 330 331 331 331 328 323 319
320 319 322 320 319 319 318 321 318 317 316 317 317 315 315 316 317 318 319 322 334 339 340 341 341 339 338 340 340 338 338 339 336 335 335 333 333 333 333 334 334 332 332 331 331 330 328 326 320
320 321 321 321 318 319 319 320 318 316 316 317 316 315 315 313 315 317 318 318 318 323 331 341 341 341 340 339 340 340 338 339 341 338 336 336 334 333 333 333 334 334 334 333 332 331 330 326 320
322 320 319 320 319 319 320 319 318 316 315 316 314 312 312 313 313 316 317 316 317 318 318 318 324 341 341 341 341 340 340 339 339 341 341 338 335 336 334 332 332 333 333 333 333 331 331 329 323
318 319 318 318 318 319 319 319 319 316 315 313 312 312 312 312 313 314 314 314 315 315 316 316 317 317 320 335 341 340 341 340 339 338 338 338 338 336 335 334 333 332 332 333 333 332 331 330 326
318 317 317 316 318 319 318 319 317 317 314 313 313 312 312 312 309 311 313 314 314 313 313 313 314 315 316 317 318 328 340 340 340 339 338 336 334 334 336 335 334 333 332 332 333 332 331 329 324
316 313 314 316 316 315 315 314 314 314 313 313 313 310 310 310 309 310 313 315 315 315 314 314 313 313 314 314 314 316 316 328 335 337 338 337 336 333 330 332 334 334 332 331 332 332 331 326 322
316 313 314 317 316 318 314 314 309 314 314 313 309 307 308 310 310 312 313 315 316 316 316 316 316 315 314 314 313 312 313 314 316 327 335 335 335 335 334 333 331 332 334 333 331 331 331 328 321
315 315 316 316 316 317 316 313 312 311 313 310 308 306 306 309 310 312 314 316 317 316 316 316 315 315 315 314 314 314 312 312 312 314 317 320 330 334 334 334 333 332 332 332 333 332 329 328 324
315 315 315 314 314 313 316 314 313 312 313 309 308 308 309 310 311 312 316 316 316 315 315 314 314 314 314 314 313 313 313 314 313 313 313 315 316 326 331 331 331 333 331 331 332 332 332 329 326
317 316 319 318 312 315 311 315 315 311 309 309 309 308 308 308 310 311 312 313 314 314 313 313 313 313 312 313 313 314 314 314 315 314 315 316 316 317 322 329 330 330 329 329 328 328 329 330 327
319 315 316 317 315 316 310 314 314 307 308 310 309 309 309 309 309 312 311 312 312 312 312 312 311 310 310 311 311 312 312 313 314 315 315 316 317 319 321 322 325 327 328 327 329 327 326 327 328
319 319 315 314 312 310 311 309 308 308 310 310 309 309 309 309 312 311 310 310 311 311 310 309 309 308 308 308 309 310 311 312 314 316 316 316 317 317 318 319 321 324 325 325 325 325 323 324 325
316 314 317 312 318 314 311 310 310 308 308 309 309 309 309 311 311 309 308 309 309 307 307 307 307 306 305 306 307 308 310 312 314 314 313 312 313 313 314 314 315 317 319 320 322 324 324 324 324
316 317 315 314 312 315 311 310 306 307 307 306 308 309 310 311 310 307 306 307 306 306 305 305 304 303 303 304 305 306 308 310 310 311 311 311 310 310 311 312 312 312 313 315 316 318 319 318 318
316 316 314 313 315 308 309 310 306 305 306 306 308 311 310 311 309 307 306 305 304 304 303 302 301 301 301 301 303 304 306 307 307 308 307 308 308 308 308 309 310 310 310 310 312 312 312 312 313
Wind_Speed
5 6 13 5 3 4 4 6 2 3 4 3 2 7 4 0 3 4 7 13 22 28 28 23 20 19 17 17 15 14 15 14 13 9 9 7 8 8 9 10 15 15 17 16 15 14 14 14 13
5 8 5 1 3 2 5 6 4 4 5 2 5 5 5 3 3 6 12 25 24 28 26 24 21 18 16 16 15 14 15 15 9 7 5 7 9 11 13 16 16 18 15 14 14 15 14 14 15
7 5 2 3 3 5 5 3 7 3 6 3 2 4 4 3 5 13 18 28 23 26 23 21 20 18 18 16 15 16 14 12 10 6 7 10 12 13 15 17 18 16 15 13 12 14 14 13 14
12 7 3 1 5 10 6 6 5 4 4 5 3 7 5 5 5 14 23 29 24 27 23 21 20 18 19 17 16 16 14 11 6 5 9 11 13 13 14 14 14 13 12 10 11 13 12 12 13
8 3 2 3 8 9 3 6 4 5 5 2 3 3 4 7 16 22 24 27 30 28 25 22 17 18 16 18 18 16 12 10 6 7 10 12 14 12 12 12 11 10 10 9 11 11 11 10 11
4 3 3 7 7 10 2 8 6 3 4 2 6 5 2 14 18 19 22 26 28 30 26 21 18 18 17 14 16 15 12 9 7 6 10 12 11 11 12 11 10 9 9 10 11 10 10 9 9
8 6 4 7 8 10 7 6 4 4 2 1 4 5 2 6 14 19 19 26 27 25 22 22 21 18 16 15 15 14 14 10 8 5 7 10 11 11 12 12 11 11 11 10 9 9 8 8 9
5 7 10 5 6 8 9 5 7 6 2 3 5 5 5 4 6 15 24 27 25 22 19 23 21 19 18 17 17 15 15 12 10 8 5 7 10 12 12 13 12 12 12 10 8 7 7 8 9
6 6 11 17 16 19 12 13 1 5 6 6 3 6 12 12 8 17 22 25 26 23 18 20 22 21 20 19 18 16 14 13 13 12 8 7 9 11 12 13 12 12 11 10 8 7 7 7 7
6 9 16 16 17 4 15 10 11 3 4 6 6 11 18 12 7 8 13 13 20 25 20 17 17 18 16 19 20 19 17 16 16 15 13 9 10 11 11 12 11 12 11 10 9 8 8 8 7
6 13 14 15 14 4 5 13 11 7 0 3 9 11 12 17 10 7 7 9 10 19 21 20 19 18 18 18 15 17 18 19 19 17 15 11 12 12 13 13 14 14 13 13 11 10 10 9 8
6 10 16 9 5 5 6 9 12 2 4 5 9 10 9 10 12 14 12 12 9 11 14 14 25 21 19 18 16 13 16 16 20 20 17 15 17 19 18 15 14 15 15 14 12 12 11 11 9
4 3 10 8 11 8 12 20 7 7 8 11 9 7 7 8 14 19 19 15 13 15 15 16 16 20 20 17 15 12 16 17 16 18 19 18 17 19 23 18 14 14 15 15 14 11 10 12 12
8 8 6 4 7 8 10 4 4 5 6 9 9 4 1 1 6 12 18 16 21 17 15 21 18 17 16 19 17 16 20 20 17 18 20 22 19 19 24 19 18 17 15 14 17 16 14 16 15
3 12 7 4 3 4 2 2 17 7 2 6 5 5 6 5 5 5 15 16 19 21 18 19 22 25 21 16 19 19 16 21 21 20 20 23 23 22 25 23 21 20 20 15 20 21 19 17 17
5 6 5 10 9 5 6 7 7 10 5 6 5 6 6 7 13 13 10 10 15 22 23 23 19 19 27 25 22 24 22 19 21 23 22 23 25 26 23 26 27 26 26 24 21 18 22 21 21
5 4 5 6 11 5 5 5 10 7 6 8 7 7 7 7 10 18 15 11 8 10 13 22 22 20 20 23 25 22 25 26 21 21 25 24 26 27 30 27 25 26 27 30 28 26 23 24 24
13 12 9 8 8 7 6 7 6 5 9 10 7 7 7 7 8 10 10 10 8 5 4 6 8 24 22 20 23 24 23 23 30 27 22 24 29 29 30 33 32 29 28 29 32 32 29 28 27
6 7 5 7 7 7 13 5 12 7 3 6 7 7 6 6 2 12 12 11 8 4 1 2 3 2 4 20 26 28 28 29 26 25 30 29 23 27 31 34 34 34 33 34 34 33 34 31 29
5 8 8 1 6 10 5 12 8 11 6 8 8 8 7 3 5 7 11 11 10 7 4 4 6 8 8 8 6 9 21 28 33 30 31 29 29 30 28 33 38 37 38 35 35 36 33 33 30
6 5 4 5 3 3 3 5 8 8 6 8 7 5 5 5 6 4 10 12 9 8 7 7 7 10 13 13 13 13 9 11 14 22 27 28 28 27 29 32 33 37 38 39 39 38 37 29 33
5 5 3 12 5 4 6 5 6 15 15 9 8 6 6 5 7 6 10 10 8 6 4 4 6 7 7 9 11 13 15 15 16 15 22 26 27 27 25 25 27 35 37 43 40 37 40 36 30
5 7 7 5 4 3 2 2 7 4 9 7 8 7 7 7 8 7 8 8 9 5 3 4 5 6 8 7 8 10 12 15 16 16 15 16 23 26 24 24 26 25 31 36 38 38 32 41 29
4 9 8 5 4 1 6 7 5 5 10 6 5 8 9 8 7 7 9 9 8 5 4 5 5 7 8 8 7 8 10 12 13 15 16 18 16 16 26 28 29 28 22 25 29 30 32 35 40
4 7 2 2 1 5 2 6 10 5 5 9 10 9 8 7 7 6 6 7 6 5 5 5 7 7 8 8 9 9 11 11 10 10 10 11 11 12 12 13 20 23 23 22 24 28 29 32 35
9 3 5 6 5 4 2 7 6 5 9 13 11 9 8 8 7 7 8 8 6 6 7 7 8 8 10 9 9 9 10 11 10 10 10 8 8 7 6 6 4 7 14 18 22 19 23 27 30
5 3 2 2 1 3 4 5 6 4 9 12 10 9 9 7 8 8 9 9 7 8 9 10 9 10 10 10 10 10 10 10 9 6 6 8 9 9 11 10 7 5 10 12 14 15 17 22 25
2 1 2 2 2 4 4 4 4 8 8 10 9 9 8 8 8 7 8 9 11 11 10 11 10 10 10 9 10 11 11 9 5 7 10 10 10 10 10 10 10 9 7 8 9 10 13 16 17
2 0 2 3 4 3 2 5 5 13 12 11 8 8 8 7 7 7 8 11 11 9 9 11 11 10 10 10 11 11 10 10 9 8 9 9 9 9 7 8 8 9 8 9 9 9 9 12 11
1 5 4 4 4 3 3 5 4 8 9 8 8 7 7 8 7 6 8 11 10 10 9 9 10 11 11 10 9 10 8 8 8 7 7 6 5 7 8 6 6 8 8 7 7 8 9 9 10
Wind_Direction
304 317 319 305 54 75 243 261 245 99 45 317 53 78 131 115 52 157 124 145 147 151 152 147 148 148 140 137 135 132 127 128 120 114 101 89 108 98 94 105 121 119 110 102 96 95 95 93 93
328 346 346 60 115 99 267 232 207 114 167 67 21 76 52 83 69 126 102 142 146 149 152 151 151 151 149 145 139 136 131 135 128 131 114 110 109 107 92 108 123 120 113 103 99 102 100 95 94
12 343 62 148 185 189 222 257 146 128 94 79 14 75 70 54 125 145 138 148 139 148 151 154 161 161 154 148 141 139 143 136 138 141 119 117 114 116 113 114 117 117 115 104 101 107 103 99 99
25 1 353 132 242 252 216 323 173 114 37 68 114 80 58 355 132 154 136 147 139 148 149 144 152 151 151 148 142 145 150 148 143 126 124 123 123 128 121 127 129 122 113 107 109 112 109 105 104
15 8 296 251 258 260 345 227 153 115 147 185 74 105 75 72 117 136 141 146 144 151 152 153 153 146 146 148 148 152 153 152 161 132 131 130 132 139 145 137 133 128 123 119 118 120 116 113 113
122 357 283 234 263 272 262 281 119 102 133 167 96 102 104 127 130 139 140 150 152 153 155 157 155 145 153 157 157 162 163 165 161 129 135 136 140 144 147 152 146 142 135 128 125 124 123 119 120
154 175 241 293 282 305 282 251 110 128 61 263 119 92 145 71 129 145 145 145 147 151 155 156 152 153 162 161 166 171 169 169 168 151 150 152 147 144 147 153 152 147 142 140 133 132 131 128 129
111 167 226 262 273 285 283 233 174 138 227 284 114 145 179 201 88 143 132 142 146 148 152 157 159 163 163 165 170 173 172 176 179 174 174 171 163 155 154 153 152 152 153 154 143 142 139 136 136
124 159 217 213 241 246 331 340 121 153 84 24 47 113 132 148 137 132 132 136 146 150 153 166 173 177 181 181 185 185 184 180 187 185 202 190 183 173 165 162 159 163 166 165 160 154 149 142 139
151 180 207 210 207 296 339 322 287 72 75 92 68 93 126 132 138 126 136 131 151 159 164 165 167 172 175 186 199 200 198 194 192 194 198 203 196 187 173 176 176 180 184 186 182 175 169 158 150
180 212 193 228 247 302 281 278 284 123 346 208 173 155 143 136 146 160 174 158 152 163 174 180 178 174 179 183 182 195 198 202 201 200 201 212 201 187 190 189 196 196 205 200 199 197 190 183 182
177 210 185 210 228 112 251 309 311 150 128 79 153 160 144 150 163 176 188 195 182 164 152 149 191 180 182 192 190 196 192 197 204 205 206 215 210 210 206 208 212 216 217 215 219 221 212 200 207
228 162 222 224 129 170 245 245 242 294 138 104 73 86 133 167 181 184 182 192 191 200 186 171 165 181 186 196 194 200 199 204 206 211 214 214 214 222 213 214 223 223 220 221 226 223 216 216 216
176 236 264 286 155 194 197 224 7 267 134 121 125 127 11 78 155 182 187 186 196 188 201 207 192 186 186 197 202 209 212 213 212 215 224 222 221 223 217 219 224 225 218 222 226 228 224 227 230
260 201 225 110 167 217 133 240 222 253 137 151 183 186 194 235 250 215 191 196 188 202 213 204 208 205 202 201 209 210 209 214 214 216 220 222 224 227 220 221 230 228 217 220 231 228 223 225 234
167 99 141 182 188 206 149 236 249 252 246 201 229 235 233 239 227 229 218 210 210 214 215 216 213 210 213 212 216 225 221 216 215 220 225 223 224 226 229 232 232 233 225 231 230 228 226 230 231
130 168 169 184 181 153 159 245 229 260 225 231 231 252 255 251 250 236 222 217 244 219 192 216 222 224 215 213 222 226 227 229 227 218 227 230 230 229 232 235 234 235 236 233 229 231 232 229 225
181 183 185 182 192 173 201 240 273 274 192 213 220 246 266 265 235 217 200 136 143 127 96 110 193 228 228 225 220 227 229 230 231 228 223 228 234 237 235 234 235 239 239 235 226 228 233 236 231
120 135 155 203 199 165 224 211 246 263 200 190 225 237 256 263 337 106 109 103 119 117 184 330 310 298 207 225 226 225 226 232 246 242 240 236 237 234 240 236 236 234 238 239 231 228 233 233 230
190 174 213 22 194 181 202 237 227 249 222 208 211 232 252 344 74 93 95 83 77 65 24 303 287 277 270 269 262 236 236 241 245 254 252 251 256 249 241 240 238 236 236 236 236 231 229 232 217
220 180 203 158 85 35 70 285 240 237 226 212 207 181 166 188 145 126 100 91 75 47 22 359 330 298 284 285 279 273 278 259 254 253 259 262 262 263 262 251 246 240 241 238 238 237 229 221 214
215 215 167 135 116 194 157 270 250 221 218 211 179 172 191 151 130 131 119 100 103 74 23 356 351 352 340 326 310 294 284 285 279 275 266 268 267 266 263 263 259 253 248 242 239 240 237 220 212
228 132 118 115 104 78 204 49 266 193 208 197 188 186 170 159 141 130 112 98 116 98 54 4 348 347 354 336 328 323 308 292 289 283 288 288 279 267 266 263 260 260 254 255 249 241 238 231 224
108 83 55 53 81 348 211 174 266 211 203 169 164 157 155 147 139 139 122 109 118 102 55 22 20 16 5 359 1 4 351 334 315 300 296 292 301 296 268 266 265 259 261 260 260 261 250 241 234
62 101 55 21 0 222 254 189 249 263 198 168 163 166 170 169 160 134 121 101 81 66 53 37 24 22 20 17 3 351 347 341 334 332 338 336 321 324 336 282 272 268 265 264 268 264 261 251 240
188 165 162 187 194 218 343 220 250 273 175 148 150 161 164 167 161 146 133 112 91 72 58 49 40 42 28 13 2 353 353 350 339 331 329 337 340 1 351 315 312 279 278 279 269 271 281 273 259
170 234 216 97 292 83 208 278 318 38 133 144 147 146 168 152 153 140 122 114 94 81 60 48 46 35 22 9 353 349 346 350 350 350 338 329 325 318 323 330 337 308 269 265 267 275 281 283 276
205 148 111 17 222 237 238 228 228 176 167 154 159 157 158 157 136 129 120 110 102 87 68 54 46 42 29 10 4 1 3 4 19 360 348 332 323 316 317 322 329 320 314 301 285 275 274 283 277
135 178 259 146 162 206 183 252 202 198 177 165 169 164 164 150 141 138 129 116 111 88 64 52 46 39 25 15 17 23 30 59 62 31 27 26 20 3 358 351 356 6 357 333 317 305 292 288 285
263 174 194 144 232 223 157 273 294 162 160 157 173 161 154 143 145 139 135 126 104 88 74 57 41 29 16 10 18 31 30 42 43 29 20 27 27 12 22 20 31 21 16 357 331 313 312 303 293